Location: Orinda
(37.8771°N, 122.1797°W)
Time: 02:34:56
(UTC+00:00)

IDEFIX/ARIANE 42P - Pass Details

Date: 21 October 2019
Orbit: 785 x 803 km, 98.3° (Epoch: 22 November)

Event Time Altitude Azimuth Distance (km) Brightness Sun altitude
Rises 11:59:00 0° 11° (N) 3,307 6.0 -29.0°
Reaches altitude 10° 12:01:20 10° 10° (N) 2,371 5.2 -28.6°
Enters shadow 12:05:19 53° 359° (N) 976 3.0 -27.8°
